Home   Weather   Heinsberg   Past weeks

Flag for Germany Past Weather in Heinsberg, North Rhine-Westphalia, Germany — Yesterday and Last 2 Weeks

Now
35 °F

Partly sunny.


Feels Like: 35 °F
Forecast: 20 / 31 °F
Wind: 2 mph from East

Location: Maastricht Airport Zuid Limburg

Current Time: Jan 21, 2017 at 6:32:24 pm

Latest Report: Jan 21, 2017 at 5:00 pm


Visibility: 13 mi

Pressure: 30.35 "Hg

Humidity: 66%

Dew Point: 24 °F

Location of HeinsbergLocation

Past Weather in Heinsberg — Graph

°F

Heinsberg Temperature Yesterday

Maximum temperature yesterday: 39 °F (at 4:00 pm)
Minimum temperature yesterday: 21 °F (at 2:00 am)
Average temperature yesterday: 29 °F

High & Low Weather Summary for the Past Weeks

 TemperatureHumidityPressure
High46 °F (Jan 11, 4:00 pm)100% (Jan 8, 2:00 am)30.71 "Hg (Jan 8, 2:00 am)
Low20 °F (Jan 18, 3:00 am)33% (Jan 20, 3:00 pm)28.94 "Hg (Jan 13, 12:00 am)
Average33 °F86%30.23 "Hg
* Reported Jan 6 5:00 pm — Jan 21 5:00 pm, Heinsberg, Weather by CustomWeather, © 2017

Note: Actual official high and low records may vary slightly from our data, if they occured in-between our weather recording intervals... More about our weather records

Advertising

Heinsberg Weather History for the Previous 24 Hours

Scroll right to see more
 ConditionsComfort  
Time TempWeatherWind HumidityBarometerVisibility
5:00 pm
Sat, Jan 21
35 °FPartly sunny.2 mph66%30.35 "Hg12 mi
4:00 pm38 °FScattered clouds.2 mph58%30.35 "Hg14 mi
3:00 pm39 °FPassing clouds.3 mph53%30.36 "Hg19 mi
2:00 pm39 °FScattered clouds.3 mph53%30.37 "Hg15 mi
1:00 pm38 °FScattered clouds.2 mph53%30.40 "Hg17 mi
12:00 pm36 °FOvercast.2 mph57%30.41 "Hg19 mi
11:00 am33 °FPartly sunny.2 mph64%30.42 "Hg16 mi
10:00 am29 °FPassing clouds.2 mph76%30.42 "Hg16 mi
9:00 am25 °FPassing clouds.1 mph80%30.43 "Hg19 mi
8:00 am25 °FPassing clouds.3 mph81%30.42 "Hg19 mi
7:00 am26 °FPassing clouds.2 mph82%30.42 "Hg16 mi
6:00 am26 °FPassing clouds.3 mph84%30.43 "Hg15 mi
5:00 am27 °FPassing clouds.5 mph83%30.44 "Hg12 mi
4:00 am26 °FPassing clouds.2 mph86%30.45 "Hg12 mi
3:00 am25 °FPassing clouds.5 mph85%30.45 "Hg6 mi
2:00 am24 °FOvercast.3 mph87%30.46 "Hg6 mi
1:00 am25 °FPassing clouds.5 mph85%30.47 "Hg8 mi
12:00 am26 °FPassing clouds.5 mph85%30.48 "Hg7 mi
11:00 pm
Fri, Jan 20
24 °FPassing clouds.3 mph87%30.50 "Hg7 mi
10:00 pm26 °FPassing clouds.3 mph85%30.50 "Hg7 mi
9:00 pm27 °FPassing clouds.3 mph82%30.50 "Hg9 mi
8:00 pm27 °FPassing clouds.3 mph81%30.51 "Hg12 mi
7:00 pm32 °FPassing clouds.3 mph69%30.51 "Hg17 mi
6:00 pm33 °FPassing clouds.3 mph60%30.51 "Hg17 mi
Weather by CustomWeather, © 2017

See weather overviewHow to use our weather pages